Regional Weather Roundup
Issued by NWS

Home | Current Version | Previous Version | Graphics & Text | Print | Product List | Glossary Off
Versions: 1 2 3 4 5 6 7 8 9 10 11 12 13 14 15 16 17 18 19 20 21 22 23 24 25 26 27 28 29 30 31 32 33 34 35 36 37 38 39 40 41 42 43 44 45 46 47 48 49 50

000
ASUS43 KTOP 290808
RWRKS

WEATHER ROUNDUP FOR KANSAS
NATIONAL WEATHER SERVICE GOODLAND KS
300 AM CDT MON AUG 29 2016

NOTE:  "FAIR" INDICATES FEW OR NO CLOUDS BELOW 12,000 FEET WITH NO
SIGNIFICANT WEATHER AND/OR OBSTRUCTIONS TO VISIBILITY.

KSZ001>006-013>018-027>032-041>047-290900-
NORTHWEST KANSAS

CITY           SKY/WX    TMP DP  RH WIND       PRES   REMARKS
GOODLAND       CLOUDY    66  59  78 SW10      30.17F
HAYS           MOCLDY    68  59  73 CALM      30.15R
HILL CITY      CLOUDY    66  64  93 CALM      30.16R
RUSSELL        CLOUDY    67  65  93 E6        30.14R
$$

KSZ061>065-074>080-084>089-290900-
SOUTHWEST KANSAS

CITY           SKY/WX    TMP DP  RH WIND       PRES   REMARKS
DODGE CITY     PTCLDY    66  65  96 CALM      30.15S
ELKHART          N/A     63  59  87 S6          N/A
GARDEN CITY    MOCLDY    64  62  93 SE3       30.16R
GREAT BEND     CLOUDY    68  61  77 E5        30.14R
LIBERAL        CLOUDY    66  61  82 S5        30.16F
PRATT          PTCLDY    66  63  90 CALM      30.14S
$$

KSZ066>073-081>083-090>101-290900-
SOUTHEAST KANSAS

CITY           SKY/WX    TMP DP  RH WIND       PRES   REMARKS
CHANUTE        CLEAR     71  69  93 E5        30.10F
COFFEYVILLE    CLEAR     70  68  93 CALM      30.09F
HUTCHINSON     CLOUDY    69  67  93 CALM      30.12S
MEDICINE LODGE   N/A     68  66  93 N3        30.10S
NEWTON         MOCLDY    71  70  96 S3        30.13R
PARSONS        CLEAR     69  68  96 CALM      30.11S
WICHITA INTL   MOCLDY    73  69  87 NW7       30.11S
WICHITA JABRA  CLEAR     73  70  90 SW3       30.11R
WICHITA MCCONL CLEAR     74  69  85 W3        30.11R
WINFIELD       CLEAR     73  69  87 E5        30.10S
$$

KSZ007>012-019>026-033>040-048>060-102>105-290900-
NORTHEAST KANSAS

CITY           SKY/WX    TMP DP  RH WIND       PRES   REMARKS
CONCORDIA      PTCLDY    69  65  86 N3        30.15S
EMPORIA        CLEAR     71  68  90 SE3       30.11S
LAWRENCE       CLEAR     69  69 100 E5        30.11R
MANHATTAN      PTCLDY    71  70  96 CALM      30.11S
MARYSVILLE     PTCLDY    70  70 100 CALM      30.13S
OLATHE IND     CLEAR     72  70  93 SE5       30.13R
OLATHE EXE     CLEAR     71  69  93 E3        30.13R
SALINA         MOCLDY    73  70  90 NW6       30.12S
TOPEKA BILLARD CLEAR     73  69  87 CALM      30.11R
TOPEKA FORBES  CLEAR     74  70  87 CALM      30.12R
$$



USA.gov is the U.S. government's official web portal to all federal, state and local government web resources and services.